www.pogodaiklimat.ru
Время
(UTC), дата
18 29.07
21 29.07
00 30.07
03 30.07
06 30.07
09 30.07
12 30.07
15 30.07
18 30.07
21 30.07
00 31.07
03 31.07
06 31.07
09 31.07
12 31.07
15 31.07
18 31.07
21 31.07
00 1.08
03 1.08
06 1.08
09 1.08
12 1.08
15 1.08
18 1.08
21 1.08
00 2.08
03 2.08
06 2.08
09 2.08
12 2.08
15 2.08
18 2.08
21 2.08
00 3.08
03 3.08
06 3.08
09 3.08
12 3.08
15 3.08
18 3.08
21 3.08
00 4.08
03 4.08
06 4.08
09 4.08
12 4.08
15 4.08
18 4.08
21 4.08
00 5.08
03 5.08
06 5.08
09 5.08
12 5.08
15 5.08
Ветер
(напр.,м/с)
Видим. Явления Облачность Т
(С)
Тd
(С)
f
(%)
Тe
(С)
Тes
(С)
Комфортность P
(гПа)
Po
(гПа)
Тmin
(С)
Tmax
(С)
R
(мм)
R24
(мм)
S
(см)
В 1 10 км 9/4 1500 м
[Sc Ci fib]
+25.2 +19.5 71 +31 +31 очень
душно
1016.4 1002.9 +28.7 0.0
СВ 1 10 км 3/0
[Ac trans]
+21.6 +19.4 87 +27 +27 душно 1017.4 1003.7
З 2 10 км 5/0
[Ac und]
+19.5 +18.4 93 +22 +22 комфорт 1017.6 1003.8
штиль 0 10 км 4/0
[Ac trans]
+18.4 +17.4 94 +19 +19 по сезону 1018.0 1004.1
штиль 0 10 км 6/4 1000 м
[Sc Ac und]
+22.3 +19.5 84 +28 +31 душно 1018.5 1004.8 +18.3
штиль 0 10 км 4/3 1500 м
[Cu hum Ac trans]
+26.4 +19.3 65 +32 +44 очень
душно
1018.3 1004.8
СЗ 3 10 км 5/3 1500 м
[Cu med, cong Ac trans]
+29.1 +15.9 45 +32 +39 душно 1017.3 1003.9
штиль 0 10 км 4/4 1500 м
[Cu hum]
+29.4 +15.4 43 +32 +36 душно 1016.3 1002.9
ЮВ 4 10 км слаб. ливневой дождь 9/9 900 м
[Cb cap]
+22.4 +19.1 82 +28 +28 душно 1017.0 1003.3 +30.1 2
штиль 0 10 км {ливн. дождь} 6/0
[Ac trans]
+20.9 +18.2 85 +25 +25 комфорт 1016.4 1002.7
штиль 0 10 км {ливн. дождь} 3/0
[Ac trans]
+17.4 +16.1 92 +17 +17 по сезону 1016.2 1002.3
штиль 0 10 км 4/0
[Ac trans]
+15.2 +13.8 91 +15 +15 прохладно 1015.6 1001.6
З 1 10 км 8/0
[Ac trans]
+19.1 +16.3 84 +22 +25 комфорт 1015.7 1001.9 +14.8 3
штиль 0 10 км 8/0
[Ac trans]
+24.4 +16.6 62 +28 +38 душно 1015.1 1001.5
СЗ 4 20 км 8/0
[Ac trans]
+26.8 +11.7 39 +28 +33 жарко 1014.6 1001.1
С 2 10 км 8/0
[Ac trans]
+25.2 +14.1 50 +28 +30 жарко 1013.7 1000.2
С 2 10 км 3/3 1000 м
[Sc]
+22.7 +16.8 69 +27 +27 душно 1013.5 999.9 +27.4
С 2 10 км ясно +17.9 +11.1 64 +18 +18 прохладно 1014.6 1000.7
штиль 0 10 км ясно +12.9 +10.6 86 +12 +12 холодно 1015.0 1000.9
штиль 0 10 км ясно +10.6 +9.4 92 +10 +10 очень
холодно
1014.9 1000.6
штиль 0 10 км ясно +16.7 +12.4 76 +17 +23 прохладно 1015.2 1001.3 +9.9
СЗ 5 10 км 4/4 1000 м
[Cu hum]
+23.0 +12.1 50 +26 +30 жарко 1014.5 1000.9
С 4 10 км 4/4 1000 м
[Cu hum]
+23.5 +10.7 44 +25 +31 комфорт 1014.3 1000.7
СЗ 4 10 км 3/3 1000 м
[Cu hum]
+23.6 +10.2 43 +25 +27 комфорт 1013.9 1000.3
С 2 10 км ясно +21.2 +10.6 51 +23 +23 комфорт 1014.2 1000.5 +24.6
СВ 1 10 км ясно +14.2 +11.4 83 +15 +15 холодно 1015.5 1001.4
штиль 0 10 км ясно +11.8 +10.6 92 +11 +11 холодно 1016.1 1001.9
СЗ 1 10 км ?/? +11.3 +10.3 94 +11 +11 очень
холодно
1015.8 1001.6
В 3 10 км ясно +18.8 +12.4 66 +20 +24 тепло 1015.8 1001.9 +11.0
З 1 10 км 4/3 1000 м
[Cu hum Ci fib]
+23.0 +11.6 49 +25 +37 комфорт 1015.9 1002.2
СЗ 1 10 км 3/3 1000 м
[Cu hum]
+25.6 +10.1 38 +26 +38 жарко 1014.6 1001.1
ЮЗ 1 10 км 3/3 1000 м
[Cu hum Ci fib]
+26.1 +11.6 40 +27 +31 жарко 1013.7 1000.2
штиль 0 10 км 6/0
[Ci fib]
+20.1 +14.8 72 +22 +22 комфорт 1013.6 999.8 +27.0
штиль 0 10 км 9/0
[Ci fib]
+14.8 +13.0 89 +14 +14 холодно 1014.2 1000.2
штиль 0 10 км 8/0
[Ci fib]
+16.6 +11.8 73 +17 +17 по сезону 1013.8 999.9
штиль 0 10 км 8/0
[Ci fib]
+11.6 +10.4 92 +11 +11 очень
холодно
1013.7 999.5
штиль 0 10 км 4/0
[Ac trans]
+16.6 +13.6 82 +16 +21 прохладно 1013.1 999.2 +11.1
ЮВ 4 10 км 4/0
[Ac trans]
+24.6 +13.9 51 +27 +34 жарко 1012.1 998.6
Ю 3 10 км 5/0
[Ac trans]
+26.9 +13.6 44 +29 +37 жарко 1010.6 997.2
ЮВ 3 10 км 8/0
[Ac trans]
+26.8 +15.1 49 +30 +32 душно 1009.2 995.8
В 2 10 км 6/0
[Ac trans]
+23.5 +16.5 65 +27 +27 душно 1007.8 994.3 +27.6
В 3 10 км 4/0
[Ac trans]
+22.3 +14.7 62 +26 +26 жарко 1008.0 994.4
В 3 10 км 4/0
[Ac trans]
+21.7 +13.2 58 +24 +24 комфорт 1007.1 993.5
В 2 10 км 8/0
[Ac trans]
+20.9 +12.9 60 +24 +24 комфорт 1007.1 993.5
С 1 10 км 9/9 1500 м
[Sc]
+19.6 +14.5 72 +22 +23 комфорт 1008.6 994.9 +19.5
штиль 0 10 км {ливн. дождь} 8/8 1440 м
[Sc]
+25.2 +13.9 50 +28 +31 жарко 1007.5 994.1
Ю 3 10 км {ливн. дождь} 8/3 1000 м
[Sc Ac trans]
+27.5 +15.8 49 +31 +35 душно 1007.5 994.2
СЗ 2 10 км 8/6 1000 м
[Sc Ac trans]
+27.0 +17.7 57 +31 +33 душно 1008.3 994.9
С 1 10 км 8/4 1000 м
[Sc Ac trans]
+24.0 +19.8 77 +29 +29 душно 1008.5 995.0 +29.6 0.0
штиль 0 10 км 6/6 1000 м
[Sc]
+20.8 +17.7 82 +24 +24 комфорт 1009.2 995.6
З 2 10 км гроза без осадков 10/10 960 м
[Cb calv]
+20.0 +17.9 88 +24 +24 комфорт 1010.1 996.4
С 4 10 км гроза, ливневой дождь 10/10 800 м
[Cb cap]
+18.9 +17.8 93 +20 +20 тепло 1012.0 998.2
СВ 2 10 км в посл. час ливневой дождь {гроза} 8/8 630 м
[Cb calv]
+19.8 +17.7 88 +23 +24 комфорт 1013.0 999.3 +18.4 18
СЗ 5 10 км 8/0
[Ac und Ci fib]
+23.4 +19.5 79 +30 +35 очень
душно
1013.3 999.7
СВ 3 10 км 8/3 1000 м
[Cu hum Ac und]
+27.4 +19.1 61 +33 +37 очень
душно
1012.5 999.1
СВ 4 10 км 8/0
[Ci fib]
+26.1 +18.4 63 +31 +33 очень
душно
1012.7 999.3
Местоположение метеостанции Ужгород (Закарпатская область, Украина): широта 48.63 долгота 22.27 высота над уровнем моря 124 м.
В архиве по умолчанию представлена погода в Ужгороде за последнюю неделю. Архивные данные за месяц целиком и за предыдущие месяцы, начиная с января 2011 года, Вы можете получить, выбрав интересующий диапазон дат из раскрывающегося списка и нажав кнопку "Найти!".
*Определитесь, кто Вы:
Внимание! Время в таблицах - всемирное. Для получения местного времени необходимо прибавить поправку, которая равна 2 ч.
Смотрите также архив погоды в соседних городах и на ближайших метеорологических станциях:
Партнеры нашего сайта:      
Пояснения к столбцам:
  • Ветер - указаны скорость ветра в м/с - средняя за 10 мин, порывы в срок и между сроками (в фигурных скобках) и направление, откуда дует ветер: С - северный,
  • СВ - северо-восточный, В - восточный, ЮВ - юго-восточный, Ю - южный, ЮЗ - юго-западный, З - западный, СЗ - северо-западный.
  • Видимость - горизонтальная дальность видимости в метрах или километрах. При видимости от 1 до 10 км при отсутствии осадков обычно наблюдается дымка, при ухудшении видимости до 1 км и менее - туман. В сухую погоду видимость может ухудшаться дымом, пылью или мглою.
  • Явления - указаны атмосферные явления, наблюдавшиеся в срок или в последний час перед сроком; фигурными скобками обозначены явления, наблюдавшиеся между сроками (за 1-3 часа до срока); квадратными скобками обозначены град или гололедные отложения с указанием их диаметра в мм.
  • Облачность - указаны через наклонную черту общая и нижняя облачность в баллах и высота нижней границы облаков в метрах; квадратными скобками обозначены формы облаков: Ci - перистые, Cs - перисто-слоистые, Cc - перисто-кучевые, Ac - высококучевые, As - высокослоистые, Sc - слоисто-кучевые, Ns - слоисто-дождевые, Cu - кучевые, Cb - кучево-дождевые. Подробнее классификацию облаков см. в Атласе облаков (PDF).
  • T - Температура воздуха - температура, измеренная на высоте 2 м над землей.
  • Td - Температура точки росы - температура, при понижении до которой содержащийся в воздухе водяной пар достигнет насыщения.
  • f - Относительная влажность воздуха - влажноcть воздуха, измеренная на высоте 2 м над землей.
  • Te - Эффективная температура - температура, которую ощущает одетый по сезону человек в тени. Характеристика душности погоды. При расчете учитывается влияние влажности воздуха и скорости ветра на теплоощущения человека.
  • Tes - Эффективная температура на солнце - температура, которую ощущает человек, с поправкой на солнечный нагрев. Характеристика знойности погоды. Зависит от высоты солнца над горизонтом, облачности и скорости ветра. Ночью, в пасмурную погоду, а также при ветре 12 м/с и более поправка равна нулю.
  • P - Атмосферное давление - приведенное к уровню моря атмосферное давление.
  • Po - Атмосферное давление - измеренное на уровне метеостанции атмосферное давление.
  • Tmin - Минимальная температура - минимум температуры воздуха на высоте 2 м над землей.
  • Tmax - Максимальная температура - максимум температуры воздуха на высоте 2 м над землей.
  • R - Количество осадков - Количество выпавших осадков за период времени, мм. При наведении курсора мыши на число - период времени, за который выпало указанное количество осадков.
  • R24 - Количество осадков - Количество выпавших осадков за 24 часа, мм.
  • S - Снежный покров - Высота снежного покрова, см. При наведении курсора мыши на число - состояние снежного покрова и степень покрытия местности в баллах.